GW1228 Weather Reports


time (UTC)temp
C
wind
direction
speed
KPH
gust
KPH
rain 1hr
cm
rain 24hr
cm
rain mn
cm
humidity
%
barometer
mb
20260510093053 16 0 0.0 0.0 0.00 0.00 0.00 89 1014.3
20260510091550 16 0 0.0 1.6 0.00 0.00 0.00 89 1014.1
20260510090049 16 0 0.0 0.0 0.00 0.00 0.00 89 1013.8
20260510084549 16 0 0.0 0.0 0.00 0.00 0.00 89 1013.5
20260510083054 16 0 0.0 1.6 0.00 0.00 0.00 89 1013.2
20260510081553 17 0 0.0 0.0 0.00 0.00 0.00 89 1012.9
20260510080054 17 0 0.0 0.0 0.00 0.00 0.00 88 1013.0
20260510074602 17 0 0.0 0.0 0.00 0.00 0.00 88 1012.7
20260510073052 17 0 0.0 0.0 0.00 0.00 0.00 88 1013.0
20260510071556 17 0 0.0 0.0 0.00 0.00 0.00 88 1013.1
20260510070107 17 0 0.0 0.0 0.00 0.00 0.00 88 1013.3
20260510064555 17 0 0.0 0.0 0.00 0.00 0.00 88 1013.2
20260510063056 17 0 0.0 0.0 0.00 0.00 0.00 87 1013.3
20260510061553 17 0 0.0 0.0 0.00 0.00 0.00 87 1013.1
20260510060051 18 0 0.0 1.6 0.00 0.00 0.00 86 1013.1
20260510054559 18 0 0.0 1.6 0.00 0.00 0.00 85 1013.0
20260510053048 18 0 0.0 0.0 0.00 0.00 0.00 85 1012.9
20260510051547 18 0 0.0 0.0 0.00 0.00 0.00 84 1013.1
20260510050051 19 0 0.0 0.0 0.00 0.00 0.00 83 1012.9
20260510044557 19 0 0.0 0.0 0.00 0.00 0.00 83 1012.9
20260510043054 20 0 0.0 0.0 0.00 0.00 0.00 82 1012.8
20260510041558 20 0 0.0 0.0 0.00 0.00 0.00 81 1012.8
20260510040052 20 0 0.0 0.0 0.00 0.00 0.00 80 1012.7
20260510034550 20 0 0.0 0.0 0.00 0.00 0.00 80 1012.6
20260510033113 21 0 0.0 0.0 0.00 0.00 0.00 79 1012.7
20260510031604 21 0 0.0 1.6 0.00 0.00 0.00 78 1012.6
20260510030051 21 0 0.0 1.6 0.00 0.00 0.00 78 1012.4
20260510024554 21 0 0.0 0.0 0.00 0.00 0.00 78 1012.4
20260510023052 22 0 0.0 0.0 0.00 0.00 0.00 77 1012.2
20260510021549 22 0 0.0 0.0 0.00 0.00 0.00 76 1012.1
20260510020049 22 0 0.0 0.0 0.00 0.00 0.00 75 1012.0
20260510014602 22 0 0.0 3.2 0.00 0.00 0.00 74 1011.8
20260510013048 23 0 0.0 0.0 0.00 0.00 0.00 74 1011.7
20260510011556 23 0 0.0 0.0 0.00 0.00 0.00 72 1011.3
20260510010100 24 0 0.0 0.0 0.00 0.00 0.00 70 1011.1
20260510004556 25 0 0.0 0.0 0.00 0.00 0.00 68 1010.8
20260510003058 25 0 0.0 0.0 0.00 0.00 0.00 67 1010.6
20260510001554 25 0 0.0 1.6 0.00 0.00 0.00 66 1010.4
20260510000054 26 0 0.0 1.6 0.00 0.00 0.00 65 1010.1
20260509234605 26 0 0.0 6.4 0.00 0.00 0.00 64 1010.1
20260509233049 26 226 0.0 4.8 0.00 0.00 0.00 64 1010.0
20260509231552 26 0 0.0 6.4 0.00 0.00 0.00 62 1010.0
20260509230052 26 0 0.0 4.8 0.00 0.00 0.00 61 1009.9
20260509224550 26 0 0.0 1.6 0.00 0.00 0.00 60 1010.0
20260509223057 26 92 0.0 3.2 0.00 0.00 0.00 59 1009.9
20260509221554 26 0 0.0 1.6 0.00 0.00 0.00 61 1009.7
20260509220059 26 94 0.0 1.6 0.00 0.00 0.00 62 1009.7
20260509214548 26 149 0.0 3.2 0.00 0.00 0.00 59 1009.6
20260509213055 26 0 0.0 3.2 0.00 0.00 0.00 60 1009.7
20260509211553 27 0 0.0 1.6 0.00 0.00 0.00 60 1009.9
20260509210051 27 0 0.0 4.8 0.00 0.00 0.00 57 1010.1
20260509204558 27 0 0.0 4.8 0.00 0.00 0.00 58 1010.1
20260509203052 27 0 0.0 4.8 0.00 0.00 0.00 59 1010.3
20260509201550 27 0 0.0 1.6 0.00 0.00 0.00 59 1010.6
20260509200054 27 0 0.0 1.6 0.00 0.00 0.00 60 1010.8
20260509194554 27 0 1.6 4.8 0.00 0.00 0.00 56 1010.8
20260509193056 26 209 0.0 4.8 0.00 0.00 0.00 59 1010.8
20260509191555 26 0 0.0 6.4 0.00 0.00 0.00 58 1011.0
20260509190056 26 0 0.0 1.6 0.00 0.00 0.00 60 1011.2
20260509184550 26 136 0.0 4.8 0.00 0.00 0.00 60 1011.2
20260509183052 26 99 1.6 6.4 0.00 0.00 0.00 60 1011.3
20260509181603 26 0 0.0 6.4 0.00 0.00 0.00 60 1011.3
20260509180049 25 98 1.6 3.2 0.00 0.00 0.00 60 1011.2
20260509174601 25 331 0.0 6.4 0.00 0.00 0.00 61 1011.4
20260509173107 25 86 0.0 3.2 0.00 0.00 0.00 62 1011.6
20260509171552 25 0 1.6 6.4 0.00 0.00 0.00 62 1011.6
20260509170052 25 306 0.0 3.2 0.00 0.00 0.00 64 1011.4
20260509164551 25 328 0.0 4.8 0.00 0.00 0.00 65 1011.5
20260509163055 24 312 0.0 4.8 0.00 0.00 0.00 67 1011.4
20260509161603 23 0 0.0 4.8 0.00 0.00 0.00 69 1011.4
20260509160059 23 286 0.0 6.4 0.00 0.00 0.00 70 1011.4
20260509154600 22 221 1.6 6.4 0.00 0.00 0.00 72 1011.4
20260509153046 22 324 0.0 3.2 0.00 0.00 0.00 74 1011.2
20260509151547 21 254 0.0 4.8 0.00 0.00 0.00 76 1011.2
20260509150049 21 322 1.6 4.8 0.00 0.00 0.00 77 1011.2
20260509144605 20 304 1.6 8.0 0.00 0.00 0.00 79 1011.2
20260509143046 19 0 1.6 4.8 0.00 0.00 0.00 82 1011.4
20260509141547 18 0 0.0 3.2 0.00 0.00 0.00 85 1011.4
20260509140100 18 308 0.0 3.2 0.00 0.00 0.00 87 1011.6
20260509134552 17 0 0.0 3.2 0.00 0.00 0.00 89 1011.7
20260509133051 16 0 1.6 4.8 0.00 0.00 0.00 92 1011.7
20260509131557 16 0 0.0 3.2 0.00 0.00 0.00 93 1011.6
20260509130059 15 0 0.0 0.0 0.00 0.00 0.00 93 1011.6
20260509124546 14 0 0.0 0.0 0.00 0.00 0.00 92 1011.4
20260509123051 14 0 0.0 1.6 0.00 0.00 0.00 91 1011.5
20260509121559 13 0 0.0 0.0 0.00 0.00 0.00 91 1011.4
20260509120051 13 0 0.0 0.0 0.00 0.00 0.00 90 1011.4
20260509114547 13 217 0.0 1.6 0.00 0.00 0.00 90 1011.1
20260509113057 13 0 0.0 0.0 0.00 0.00 0.00 90 1011.2
20260509111556 14 0 0.0 1.6 0.00 0.00 0.00 90 1011.1
20260509110050 14 0 0.0 0.0 0.00 0.00 0.00 89 1010.5
20260509104547 14 0 0.0 0.0 0.00 0.00 0.00 89 1010.0
20260509103049 15 0 0.0 0.0 0.00 0.00 0.00 89 1009.9
20260509101550 15 0 0.0 0.0 0.00 0.00 0.00 89 1009.5
20260509100047 15 0 0.0 0.0 0.00 0.00 0.00 89 1009.6
20260509094551 15 0 0.0 0.0 0.00 0.00 0.00 89 1009.4